THY9NK LTFM-LTAU

Flight info

Callsign THY9NK
Flight time 0h 58m
Altitude 35000
Route VICEN1E/36 VICEN UT57 VEVUD UT341 BAG UL614 GOBIT UG8 MARTI UW76 SARIZ
Aircraft A321/M-SDE3FGHIRWY/LB1

Departure

Time 2026-05-05 18:01
Airport İstanbul Airport (LTFM)

Arrival

Time 2026-05-05 18:59
Airport Kayseri Erkilet International Airport (LTAU)
Time Latitude Longitude Altitude Speed Heading
2026-05-05 17:34 41.25976 28.74953 331 ft 0 kts 251°
2026-05-05 17:50 41.25982 28.74979 329 ft 4 kts 257°
2026-05-05 17:50 41.25986 28.75014 331 ft 4 kts 268°
2026-05-05 17:50 41.25985 28.75049 331 ft 4 kts 282°
2026-05-05 17:50 41.25977 28.75081 329 ft 4 kts 309°
2026-05-05 17:51 41.25963 28.75097 330 ft 0 kts 341°
2026-05-05 17:55 41.25964 28.75097 334 ft 1 kts 341°
2026-05-05 17:55 41.25972 28.75093 331 ft 2 kts 341°
2026-05-05 17:55 41.25989 28.75085 332 ft 3 kts 341°
2026-05-05 17:56 41.26005 28.75078 331 ft 4 kts 341°
2026-05-05 17:56 41.26039 28.75063 333 ft 7 kts 341°
2026-05-05 17:56 41.26094 28.75037 331 ft 10 kts 340°
2026-05-05 17:56 41.26168 28.75003 333 ft 13 kts 342°
2026-05-05 17:57 41.26242 28.75049 331 ft 14 kts 71°
2026-05-05 17:57 41.26246 28.75131 334 ft 9 kts 86°
2026-05-05 17:57 41.26246 28.75217 334 ft 10 kts 89°
2026-05-05 17:57 41.26247 28.75315 334 ft 11 kts 89°
2026-05-05 17:58 41.26248 28.75421 334 ft 11 kts 89°
2026-05-05 17:58 41.26249 28.75484 334 ft 0 kts 89°
2026-05-05 17:59 41.26249 28.75492 334 ft 1 kts 89°
2026-05-05 17:59 41.26249 28.75517 334 ft 4 kts 89°
2026-05-05 17:59 41.26250 28.75575 334 ft 8 kts 89°
2026-05-05 18:00 41.26251 28.75655 334 ft 5 kts 88°
2026-05-05 18:00 41.26276 28.75668 334 ft 5 kts
2026-05-05 18:00 41.26282 28.75668 331 ft 1 kts 358°
2026-05-05 18:00 41.26528 28.75661 333 ft 72 kts 359°
2026-05-05 18:01 41.27267 28.75652 331 ft 135 kts 359°
2026-05-05 18:01 41.28354 28.75645 574 ft 161 kts 360°
2026-05-05 18:01 41.29443 28.75641 1318 ft 159 kts
2026-05-05 18:01 41.30474 28.76257 1765 ft 176 kts 39°
2026-05-05 18:02 41.31475 28.77365 2007 ft 198 kts 36°
2026-05-05 18:02 41.32688 28.78428 2186 ft 221 kts 30°
2026-05-05 18:02 41.34099 28.79495 2466 ft 244 kts 28°
2026-05-05 18:02 41.35607 28.80595 3186 ft 249 kts 27°
2026-05-05 18:03 41.37112 28.81741 4030 ft 251 kts 33°
2026-05-05 18:03 41.38312 28.83442 4855 ft 258 kts 57°
2026-05-05 18:03 41.38841 28.85750 5608 ft 269 kts 84°
2026-05-05 18:03 41.38455 28.88214 6340 ft 281 kts 114°
2026-05-05 18:04 41.37448 28.90467 7043 ft 286 kts 118°
2026-05-05 18:04 41.36385 28.92724 7744 ft 289 kts 118°
2026-05-05 18:04 41.35304 28.95007 8449 ft 293 kts 118°
2026-05-05 18:04 41.34216 28.97313 9157 ft 296 kts 118°
2026-05-05 18:05 41.33120 28.99648 9856 ft 300 kts 118°
2026-05-05 18:05 41.32004 29.02037 10323 ft 312 kts 118°
2026-05-05 18:05 41.30819 29.04587 10462 ft 335 kts 118°
2026-05-05 18:05 41.29558 29.07303 10598 ft 356 kts 118°
2026-05-05 18:06 41.28233 29.10148 11021 ft 365 kts 118°
2026-05-05 18:06 41.27340 29.12054 11420 ft 368 kts 118°
2026-05-05 18:06 41.25514 29.15943 12254 ft 373 kts 119°
2026-05-05 18:06 41.24135 29.18870 12887 ft 376 kts 119°
2026-05-05 18:07 41.22740 29.21837 13541 ft 379 kts 119°
2026-05-05 18:07 41.21379 29.24728 14138 ft 382 kts 119°
2026-05-05 18:07 41.19962 29.27732 14713 ft 386 kts 119°
2026-05-05 18:07 41.18535 29.30754 15305 ft 388 kts 120°
2026-05-05 18:08 41.17095 29.33807 15887 ft 391 kts 120°
2026-05-05 18:08 41.15648 29.36877 16469 ft 394 kts 120°
2026-05-05 18:08 41.14189 29.39974 17051 ft 397 kts 120°
2026-05-05 18:08 41.12720 29.43095 17624 ft 400 kts 120°
2026-05-05 18:09 41.11234 29.46244 18184 ft 404 kts 121°
2026-05-05 18:09 41.09740 29.49401 18696 ft 407 kts 121°
2026-05-05 18:09 41.08230 29.52591 19201 ft 409 kts 121°
2026-05-05 18:09 41.06714 29.55792 19711 ft 412 kts 121°
2026-05-05 18:10 41.05184 29.59013 20216 ft 414 kts 121°
2026-05-05 18:10 41.03641 29.62251 20718 ft 417 kts 121°
2026-05-05 18:10 41.02086 29.65511 21207 ft 419 kts 121°
2026-05-05 18:10 41.00527 29.68780 21662 ft 422 kts 121°
2026-05-05 18:11 40.98954 29.72076 22127 ft 424 kts 120°
2026-05-05 18:11 40.97374 29.75382 22599 ft 426 kts 120°
2026-05-05 18:11 40.95787 29.78704 23044 ft 429 kts 120°
2026-05-05 18:11 40.94192 29.82043 23471 ft 431 kts 120°
2026-05-05 18:12 40.92584 29.85405 23868 ft 433 kts 120°
2026-05-05 18:12 40.90968 29.88781 24218 ft 436 kts 120°
2026-05-05 18:12 40.89333 29.92178 24571 ft 438 kts 121°
2026-05-05 18:12 40.87698 29.95579 24927 ft 441 kts 120°
2026-05-05 18:13 40.86048 29.99011 25275 ft 443 kts 120°
2026-05-05 18:13 40.84394 30.02447 25619 ft 445 kts 120°
2026-05-05 18:13 40.82729 30.05904 25964 ft 447 kts 120°
2026-05-05 18:13 40.81027 30.09436 26303 ft 450 kts 120°
2026-05-05 18:14 40.79366 30.12873 26624 ft 452 kts 120°
2026-05-05 18:14 40.77668 30.16376 26951 ft 455 kts 120°
2026-05-05 18:14 40.75960 30.19893 27258 ft 457 kts 120°
2026-05-05 18:14 40.74238 30.23433 27571 ft 459 kts 120°
2026-05-05 18:15 40.72513 30.26981 27876 ft 461 kts 120°
2026-05-05 18:15 40.70780 30.30552 28188 ft 464 kts 120°
2026-05-05 18:15 40.69035 30.34148 28507 ft 466 kts 120°
2026-05-05 18:15 40.67283 30.37749 28828 ft 468 kts 120°
2026-05-05 18:16 40.65522 30.41354 29136 ft 470 kts 121°
2026-05-05 18:16 40.63767 30.44944 29451 ft 472 kts 120°
2026-05-05 18:16 40.61991 30.48575 29901 ft 471 kts 120°
2026-05-05 18:16 40.60195 30.52243 30317 ft 470 kts 120°
2026-05-05 18:17 40.58424 30.55855 30668 ft 470 kts 121°
2026-05-05 18:17 40.56652 30.59469 31003 ft 470 kts 121°
2026-05-05 18:17 40.54900 30.63036 31323 ft 471 kts 121°
2026-05-05 18:17 40.53121 30.66650 31662 ft 471 kts 121°
2026-05-05 18:18 40.51341 30.70261 31973 ft 471 kts 120°
2026-05-05 18:18 40.49759 30.74021 32277 ft 469 kts 111°
2026-05-05 18:18 40.48615 30.78016 32577 ft 466 kts 104°
2026-05-05 18:18 40.47665 30.82094 32879 ft 467 kts 104°
2026-05-05 18:19 40.46707 30.86164 33181 ft 467 kts 104°
2026-05-05 18:19 40.45743 30.90230 33479 ft 468 kts 104°
2026-05-05 18:19 40.44771 30.94313 33778 ft 468 kts 104°
2026-05-05 18:19 40.43796 30.98394 34070 ft 468 kts 104°
2026-05-05 18:20 40.42822 31.02459 34317 ft 469 kts 104°
2026-05-05 18:20 40.41839 31.06554 34566 ft 469 kts 104°
2026-05-05 18:20 40.40863 31.10632 34816 ft 469 kts 104°
2026-05-05 18:20 40.39884 31.14712 35012 ft 470 kts 105°
2026-05-05 18:21 40.38901 31.18801 35076 ft 469 kts 105°
2026-05-05 18:21 40.37313 31.27051 35073 ft 466 kts 99°
2026-05-05 18:22 40.35975 31.35375 35068 ft 466 kts 99°
2026-05-05 18:22 40.34609 31.43674 35064 ft 466 kts 99°
2026-05-05 18:23 40.33245 31.51981 35062 ft 466 kts 99°
2026-05-05 18:23 40.31876 31.60289 35064 ft 467 kts 99°
2026-05-05 18:24 40.30503 31.68607 35066 ft 467 kts 99°
2026-05-05 18:24 40.29127 31.76923 35066 ft 468 kts 99°
2026-05-05 18:25 40.27741 31.85243 35066 ft 468 kts 99°
2026-05-05 18:25 40.26316 31.93566 35066 ft 469 kts 101°
2026-05-05 18:26 40.24604 32.01814 35064 ft 470 kts 104°
2026-05-05 18:26 40.22718 32.10026 35062 ft 471 kts 104°
2026-05-05 18:27 40.20860 32.18247 35056 ft 472 kts 103°
2026-05-05 18:27 40.19061 32.26497 35051 ft 472 kts 103°
2026-05-05 18:28 40.16368 32.38903 35041 ft 473 kts 103°
2026-05-05 18:28 40.14552 32.47123 35042 ft 474 kts 103°
2026-05-05 18:29 40.12720 32.55397 35035 ft 475 kts 103°
2026-05-05 18:29 40.10875 32.63698 35032 ft 476 kts 103°
2026-05-05 18:30 40.09023 32.71990 35042 ft 477 kts 103°
2026-05-05 18:30 40.07154 32.80304 35042 ft 477 kts 104°
2026-05-05 18:31 40.05001 32.88514 35041 ft 480 kts 108°
2026-05-05 18:31 40.02520 32.96609 35045 ft 481 kts 109°
2026-05-05 18:32 40.00016 33.04699 35047 ft 481 kts 109°
2026-05-05 18:32 39.97584 33.12841 35044 ft 481 kts 108°
2026-05-05 18:33 39.95199 33.20990 35019 ft 481 kts 108°
2026-05-05 18:33 39.92799 33.29133 35015 ft 482 kts 108°
2026-05-05 18:34 39.90373 33.37262 35016 ft 482 kts 108°
2026-05-05 18:34 39.87926 33.45399 35012 ft 482 kts 108°
2026-05-05 18:35 39.85478 33.53526 35011 ft 482 kts 109°
2026-05-05 18:35 39.83114 33.61630 35017 ft 481 kts 103°
2026-05-05 18:36 39.81423 33.70020 35027 ft 479 kts 101°
2026-05-05 18:36 39.79714 33.78456 35027 ft 479 kts 102°
2026-05-05 18:37 39.78015 33.86774 35027 ft 479 kts 102°
2026-05-05 18:37 39.75843 33.94979 35036 ft 481 kts 107°
2026-05-05 18:38 39.73529 34.03128 35037 ft 480 kts 107°
2026-05-05 18:38 39.71610 34.09895 35038 ft 480 kts 107°
2026-05-05 18:39 39.69787 34.16310 35035 ft 480 kts 108°
2026-05-05 18:39 39.67469 34.24417 35038 ft 479 kts 108°
2026-05-05 18:40 39.65147 34.32523 35041 ft 479 kts 108°
2026-05-05 18:40 39.62828 34.40613 35043 ft 478 kts 108°
2026-05-05 18:41 39.60501 34.48687 35043 ft 478 kts 108°
2026-05-05 18:41 39.59336 34.52729 34780 ft 479 kts 108°
2026-05-05 18:41 39.58162 34.56811 33860 ft 487 kts 108°
2026-05-05 18:42 39.56967 34.60949 32925 ft 492 kts 108°
2026-05-05 18:42 39.55762 34.65106 32069 ft 494 kts 107°
2026-05-05 18:42 39.54550 34.69277 31250 ft 495 kts 107°
2026-05-05 18:42 39.53337 34.73446 30560 ft 493 kts 107°
2026-05-05 18:43 39.52536 34.76195 30138 ft 491 kts 107°
2026-05-05 18:43 39.51331 34.80318 29348 ft 489 kts 107°
2026-05-05 18:43 39.50129 34.84427 28675 ft 485 kts 108°
2026-05-05 18:43 39.48938 34.88486 28072 ft 481 kts 108°
2026-05-05 18:44 39.47753 34.92520 27491 ft 476 kts 108°
2026-05-05 18:44 39.46586 34.96493 26900 ft 471 kts 108°
2026-05-05 18:44 39.45426 35.00434 26310 ft 466 kts 109°
2026-05-05 18:44 39.44274 35.04342 25721 ft 462 kts 109°
2026-05-05 18:45 39.43138 35.08200 25158 ft 458 kts 109°
2026-05-05 18:45 39.41947 35.11993 24597 ft 454 kts 115°
2026-05-05 18:45 39.40288 35.15447 24056 ft 452 kts 127°
2026-05-05 18:45 39.38133 35.18378 23499 ft 448 kts 140°
2026-05-05 18:46 39.35586 35.20657 22862 ft 444 kts 152°
2026-05-05 18:46 39.32795 35.22300 22215 ft 439 kts 158°
2026-05-05 18:46 39.29986 35.23819 21594 ft 435 kts 158°
2026-05-05 18:46 39.27209 35.25331 21015 ft 431 kts 158°
2026-05-05 18:47 39.24467 35.26827 20443 ft 426 kts 157°
2026-05-05 18:47 39.21741 35.28316 19936 ft 422 kts 157°
2026-05-05 18:47 39.19046 35.29786 19381 ft 420 kts 157°
2026-05-05 18:47 39.16367 35.31241 18896 ft 416 kts 157°
2026-05-05 18:48 39.13710 35.32679 18448 ft 412 kts 157°
2026-05-05 18:48 39.11071 35.34105 17884 ft 410 kts 157°
2026-05-05 18:48 39.08474 35.35570 17358 ft 406 kts 152°
2026-05-05 18:48 39.06158 35.37597 16871 ft 401 kts 139°
2026-05-05 18:49 39.04270 35.40211 16324 ft 398 kts 125°
2026-05-05 18:49 39.02899 35.43265 15824 ft 392 kts 112°
2026-05-05 18:49 39.02022 35.46556 15322 ft 387 kts 105°
2026-05-05 18:49 39.01234 35.49848 14832 ft 383 kts 106°
2026-05-05 18:50 39.00449 35.53109 14327 ft 379 kts 106°
2026-05-05 18:50 38.99671 35.56328 13837 ft 376 kts 106°
2026-05-05 18:50 38.98897 35.59529 13306 ft 373 kts 106°
2026-05-05 18:50 38.98130 35.62691 12826 ft 368 kts 106°
2026-05-05 18:51 38.97370 35.65806 12345 ft 363 kts 106°
2026-05-05 18:51 38.96616 35.68878 11871 ft 359 kts 106°
2026-05-05 18:51 38.95872 35.71911 11403 ft 354 kts 106°
2026-05-05 18:51 38.95139 35.74915 10935 ft 350 kts 106°
2026-05-05 18:52 38.94419 35.77874 10555 ft 344 kts 106°
2026-05-05 18:52 38.93710 35.80750 10424 ft 331 kts 109°
2026-05-05 18:52 38.92672 35.83319 10299 ft 319 kts 126°
2026-05-05 18:52 38.91171 35.85338 10179 ft 308 kts 142°
2026-05-05 18:53 38.89365 35.86719 10011 ft 298 kts 158°
2026-05-05 18:53 38.87385 35.87416 9510 ft 299 kts 179°
2026-05-05 18:53 38.85398 35.86823 9097 ft 291 kts 214°
2026-05-05 18:53 38.83947 35.85117 8816 ft 280 kts 239°
2026-05-05 18:54 38.83222 35.82863 8491 ft 272 kts 258°
2026-05-05 18:54 38.82833 35.80494 8126 ft 271 kts 260°
2026-05-05 18:54 38.82438 35.78191 7761 ft 257 kts 259°
2026-05-05 18:54 38.82032 35.76021 7431 ft 244 kts 258°
2026-05-05 18:55 38.81638 35.73930 7126 ft 237 kts 258°
2026-05-05 18:55 38.81259 35.71916 6821 ft 230 kts 259°
2026-05-05 18:55 38.80888 35.69935 6527 ft 227 kts 259°
2026-05-05 18:55 38.80523 35.67993 6229 ft 220 kts 258°
2026-05-05 18:56 38.80180 35.66175 5943 ft 201 kts 258°
2026-05-05 18:56 38.79872 35.64544 5688 ft 174 kts 259°
2026-05-05 18:56 38.79603 35.63118 5443 ft 158 kts 259°
2026-05-05 18:56 38.79351 35.61777 5217 ft 152 kts 259°
2026-05-05 18:57 38.79103 35.60460 4994 ft 151 kts 258°
2026-05-05 18:57 38.78857 35.59152 4777 ft 151 kts 257°
2026-05-05 18:57 38.78609 35.57838 4558 ft 151 kts 257°
2026-05-05 18:57 38.78361 35.56533 4359 ft 151 kts 257°
2026-05-05 18:58 38.78117 35.55233 4153 ft 149 kts 258°
2026-05-05 18:58 38.77873 35.53943 3965 ft 148 kts 256°
2026-05-05 18:58 38.77630 35.52663 3768 ft 147 kts 258°
2026-05-05 18:58 38.77400 35.51414 3543 ft 146 kts 256°
2026-05-05 18:59 38.77164 35.50216 3464 ft 122 kts 257°
2026-05-05 18:59 38.77011 35.49360 3468 ft 74 kts 257°
2026-05-05 18:59 38.76933 35.48933 3467 ft 27 kts 256°
2026-05-05 18:59 38.76887 35.48710 3466 ft 19 kts 253°
2026-05-05 19:00 38.76829 35.48621 3468 ft 10 kts 185°
2026-05-05 19:00 38.76790 35.48630 3468 ft 0 kts 166°
2026-05-05 19:00 38.76780 35.48633 3468 ft 2 kts 166°
2026-05-05 19:00 38.76757 35.48641 3468 ft 4 kts 161°
2026-05-05 19:01 38.76742 35.48672 3466 ft 5 kts 100°
2026-05-05 19:01 38.76745 35.48727 3468 ft 7 kts 79°
2026-05-05 19:01 38.76745 35.48768 3468 ft 1 kts 140°
2026-05-05 19:01 38.76721 35.48779 3468 ft 5 kts 163°
2026-05-05 19:02 38.76697 35.48786 3467 ft 2 kts 167°
2026-05-05 19:02 38.76685 35.48790 3468 ft 1 kts 166°
2026-05-05 19:02 38.76680 35.48792 3468 ft 0 kts 166°